Regional Weather Roundup
Issued by NWS

Home | Current Version | Previous Version | Graphics & Text | Print | Product List | Glossary On
Versions: 1 2 3 4 5 6 7 8 9 10 11 12 13 14 15 16 17 18 19 20 21 22 23 24 25 26 27 28 29 30 31 32 33 34 35 36 37 38 39 40 41 42 43 44 45 46 47 48 49 50
000
ASUS43 KLOT 312208
RWRIL

ILLINOIS REGIONAL WEATHER ROUNDUP
NATIONAL WEATHER SERVICE CHICAGO/ROMEOVILLE IL
500 PM CDT MON AUG 31 2015

NOTE: "FAIR" INDICATES FEW OR NO CLOUDS BELOW 12,000 FEET WITH NO
SIGNIFICANT WEATHER AND/OR OBSTRUCTIONS TO VISIBILITY.

* THESE STATIONS ARE NOT UNDER NWS QUALITY CONTROL. THEY ALSO MAY NOT
  REPORT WEATHER SUCH AS PRECIPITATION OR FOG.

ILZ001-002-007-009-015-016-024-312300-
NORTHWEST ILLINOIS

CITY           SKY/WX    TMP DP  RH WIND       PRES   REMARKS
MOLINE         MOSUNNY   88  71  57 S9        29.97F HX  94
STERLING*      PTSUNNY   88  70  55 S5        29.98S HX  92
SAVANNA*       MOSUNNY   87  68  52 S7        29.99S HX  90
$$

ILZ003-004-008-010-011-017-018-312300-
NORTH CENTRAL ILLINOIS

CITY           SKY/WX    TMP DP  RH WIND       PRES   REMARKS
ROCKFORD       MOSUNNY   84  68  58 SW10      30.02F HX  87
FREEPORT*      MOSUNNY   82  69  63 S6        30.03S HX  85
ROCHELLE*      MOSUNNY   83  71  66 SW3       30.02S HX  88
DE KALB*       SUNNY     83  71  66 S8        30.04S HX  87
PERU*          MOSUNNY   87  65  48 S7        30.01F HX  88
$$

ILZ005-006-012>014-019>023-312300-
NORTHEAST ILLINOIS

CITY           SKY/WX    TMP DP  RH WIND       PRES   REMARKS
CHICAGO-OHARE  MOSUNNY   85  66  53 SW7       30.01S HX  87
CHICAGO-MIDWAY MOSUNNY   86  67  52 SW8       30.01S HX  89
AURORA         SUNNY     85  70  60 S7        30.02F HX  89
LANSING*       SUNNY     85  67  54 SW6       30.02S HX  88
JOLIET*        MOSUNNY   87  70  55 SW6       30.01F HX  92
WAUKEGAN       SUNNY     75  67  76 SE7       30.02F
DUPAGE AIRPORT MOSUNNY   84  68  58 S7        30.01F HX  87
KANKAKEE*      MOSUNNY   86  72  62 SW7       30.03S HX  92
WHEELING       SUNNY     81  67  62 VRB5      30.02F HX  83
MORRIS*        SUNNY     85  69  57 S6        30.00F HX  89
ROMEOVILLE*    MOSUNNY   85  67  54 S6        30.01F HX  88
NORTHERLY ISL    N/A     75  68  78 NE1         N/A
$$

LMZ740>746-312300-
SOUTHERN LAKE MICHIGAN

STATION/POSITION SKY/WX   TEMP    WIND        PRES    VSBY  WAVE
                          AIR SEA DIR/SP/G                  HT/PER
                          (F)     (DEG/KT/KT) (MB)    (MI)  (FT/S)
SOUTHERN BUOY              70 71  150/  6/  6 1016.5F         0
WILMETTE HARBOR            70 65  270/  2/  2   N/A           0
HARRISON CRIB              72      80/  8/  8   N/A
BURNHAM HARBOR             75      80/  1/  3   N/A
CALUMET HARBOR             76      50/  2/  5   N/A
BURNS HARBOR               75      70/  9/ 10 1017.3F
MICHIGAN CITY              73      30/  7/  8   N/A
MICHIGAN CITY 6N           74 73   80/  6/  6   N/A           0
ST. JOSEPH                 74 76   50/  4/  4   N/A           0
$$

ILZ025>027-034>036-040-047-049-050-058-095>099-312300-
WEST-CENTRAL ILLINOIS

CITY           SKY/WX    TMP DP  RH WIND       PRES   REMARKS
QUINCY         MOSUNNY   90  69  50 S7        29.98S HX  94
GALESBURG*     SUNNY     86  71  61 S5        29.99F HX  92
MACOMB*        MOSUNNY   89  69  51 S7        30.01S HX  93
JACKSONVILLE*  MOSUNNY   90  72  55 S7        29.99F HX  97
PITTSFIELD*    SUNNY     90  70  52 S7        30.00F HX  95
$$

ILZ028>032-037-038-041>044-048-051>054-059>061-312300-
CENTRAL ILLINOIS

CITY           SKY/WX    TMP DP  RH WIND       PRES   REMARKS
PONTIAC        MOSUNNY   88  72  58 S6        30.02F HX  94
BLOOMINGTON    MOSUNNY   87  73  62 S10       30.03F HX  94
DECATUR        MOSUNNY   87  70  56 S10       30.02F HX  92
PEORIA         MOSUNNY   91  69  48 S7        30.00S HX  96
LACON*         SUNNY     87  70  56 SE6       29.99F HX  91
LINCOLN*       SUNNY     86  71  60 SE8       29.99F HX  92
SPRINGFIELD    MOSUNNY   90  70  51 S13       30.00F HX  95
TAYLORVILLE    SUNNY     86  70  58 S7        30.02S HX  90
$$

ILZ033-039-045-046-055>057-062-063-312300-
EAST-CENTRAL ILLINOIS

CITY           SKY/WX    TMP DP  RH WIND       PRES   REMARKS
CHAMPAIGN      MOSUNNY   86  70  58 S6        30.04S HX  90
RANTOUL*       MOSUNNY   87  73  62 S7        30.03S HX  93
MATTOON        MOSUNNY   84  68  58 S8        30.04F HX  87
PARIS*         MOSUNNY   86  70  59 S10       30.05S HX  90
$$

ILZ079-100>102-312300-
SOUTHWEST ILLINOIS

CITY           SKY/WX    TMP DP  RH WIND       PRES   REMARKS
ALTON          PTSUNNY   84  72  65 SE6       30.02S HX  89
BELLEVILLE     MOSUNNY   88  74  64 VRB5      30.00S HX  96
CAHOKIA*       TSTM      84  68  58 N6        30.01S HX  87
SPARTA*        SUNNY     85  72  63 S10       30.04S HX  91
$$

ILZ064>066-069>071-074>076-080>082-084>086-088>090-092>094-312300-
SOUTH-CENTRAL ILLINOIS

CITY           SKY/WX    TMP DP  RH WIND       PRES   REMARKS
CARBONDALE     MOSUNNY   85  70  60 S12       30.04F HX  89
CAIRO*         SUNNY     85  72  63 SE7       30.05S HX  91
EFFINGHAM*     SUNNY     85  67  55 S3        30.06S HX  87
MARION         MOSUNNY   88  70  55 S9        30.05F HX  92
MT. VERNON     CLOUDY    88  70  55 S6        30.05S HX  92
SALEM*         MOSUNNY   89  70  53 S7        30.03F HX  93
METROPOLIS*    SUNNY     87  72  61 SE5       30.06F HX  93
$$

ILZ067-068-072-073-078-083-087-091-312300-
SOUTHEAST ILLINOIS

CITY           SKY/WX    TMP DP  RH WIND       PRES   REMARKS
LAWRENCEVILLE  MOSUNNY   86  67  52 S9        30.05F HX  89
FLORA*         SUNNY     87  67  52 S8        30.04F HX  90
FAIRFIELD*     MOSUNNY   87  68  53 S9        30.04S HX  90
HARRISBURG*    MOSUNNY   87  70  56 S8        30.05S HX  91
ROBINSON*      MOSUNNY   87  68  52 S8        30.05F HX  90
CARMI*         SUNNY     85  70  60 S7        30.05S HX  89
$$

ABBREVIATIONS USED IN REMARKS
   TC - TEMPERATURE IN CELSIUS
  WCI - WIND CHILL INDEX
   HX - HEAT INDEX
  VSB - VISIBILITY
$$



USA.gov is the U.S. government's official web portal to all federal, state and local government web resources and services.